Showing default

KINEIS-1A, 60084

Orbit data source: Space-Track

KINEIS-1A, 60084 is a French payload satellite in SSO that was launched on Thu, 20 Jun 2024 UTC via an ELECTRON launch vehicle from the Rocket Lab Launch Complex (RLLC). Payload-class satellites include a variety of spacecraft equipped with specific instruments for various scientific and technological missions. These include communications satellites like Starlink; space stations such as the ISS; scientific satellites like the Hubble; Earth observation satellites from companies like Planet Labs, Umbra, and HawkEye 360; GPS; miniature CubeSats for education and research; and military/defense satellites.

Loading next visibility...
Identifier
60084, 2024-114F
Orbit
SSO
Last TLE update
22 hours ago
Origin
Manufacturer
KINEIS
Mission
Operational Commercial Communications
Bus & Motor
CUBESAT 16U, Unknown motor
Mass
28 kg wet, 28 kg dry
Launch date (UTC)
2024-06-20 (10 months ago)
Launch vehicle
ELECTRON
Launch site
Rocket Lab Launch Complex (RLLC)
Object type
Payload
Rocket body
Debris
Shape & HBR
Box + 2 Pan + 1 Ant, 1.6 m
Radar Cross Section
0.229 m², Medium (>0.1 m² and < 1m²)

Expand to show TLE details & history

TLE from 22 hours ago
0 KINEIS-1A
1 60084U 24114F   25119.12942527  .00001951  00000-0  26734-3 0  9991
2 60084  98.0123 139.8286 0004325  49.3645 310.7941 14.79597250 46144
Epoch: 2025-04-29T03:06Z
Definitive object data (Epoch: 2025-04-29T03:06:22.343Z)
Latitude
-0.0001°
Longitude
-124.09801°
Altitude
631.633 km
Speed
7.544 km/s
True Right ascension
09h 19m 18s
True Declination
0° 00' 00"
Sunlit
Object was in daylight at TLE epoch
Visualization TLE readout
Latitude
69.88074°
Longitude
79.2664°
Altitude
641.24 km
Speed
7.545 km/s
Apparent Right ascension
21h 05m 34s
Apparent Declination
19° 48' 12"
Sunlit
Object is in daylight
Visualization observer readout
Local Sidereal Time
08:14:04
Azimuth
346.12° N
Elevation
-29.084°
Doppler factor
1
Orbital elements
Apogee altitude
630.672 km
Perigee altitude
624.612 km
Semi-major axis
7,005.779 km
Eccentricity
0.0004325
Inclination
98.0123°
RAAN
139.8286°
Arg. of periapsis
49.3645°
True anomaly
310.75657°
Mean anomaly
310.7941°
Eccentric anomaly
310.77533°
Mean motion
3.70134 °/min
BSTAR
0.00026734
Orbital period
97.26 mins
Loading maneuver chart data...
Loading SW <> Apogee altitude chart data...
Loading historical data...
Loading historical data...
Loading historical data...
Loading historical data...
Loading historical data...
Loading historical data...
Loading historical data...

KINEIS-1A Visibility forecast

Observer location: undefined°, undefined°

Span
Click to sort rows by Start time (UTC) header in descending order
Start Az.
Max El. time (UTC)
Max El. Az.
Max El.
End time (UTC)
End Az.
7 mins2025-04-30 01:56:40.289Z198.993° SSW2025-04-30 02:00:40.289Z274.644° WNW28.794°2025-04-30 02:03:40.289Z324.535° NNW
6 mins2025-04-30 13:46:40.289Z35.926° NE2025-04-30 13:49:40.289Z109.663° ESE33.854°2025-04-30 13:52:40.289Z166.085° S
4 mins2025-04-30 15:23:40.289Z321.545° NNW2025-04-30 15:25:40.289Z289.182° WNW16.248°2025-04-30 15:27:40.289Z259.606° W
|